Location: Newark
(34.3481°N, 134.0494°E)
Time: 03:26:11
(UTC+00:00)

Vanguard 3 - Pass Details

Date: 03 February 2020
Orbit: 508 x 3263 km, 33.3° (Epoch: 18 February)

Event Time Altitude Azimuth Distance (km) Brightness Sun altitude
Rises 14:12:09 0° 280° (W) 6,981 12.2 -67.0°
Reaches altitude 10° 14:20:01 10° 263° (W) 5,529 11.4 -68.0°
Enters shadow 14:22:58 13° 253° (WSW) 5,056 11.2 -68.4°
Maximum altitude 14:27:40 15° 234° (SW) 4,483 - -69.0°
Drops below altitude 10° 14:33:55 10° 203° (SSW) 4,309 - -69.7°
Sets 14:38:46 0° 181° (S) 4,753 - -70.2°
